Skip Page Navigation
NASA JPL Caltech
NASA Logo - Jet Propulsion Laboratory + View the NASA Portal
+ Center for Near-Earth Object Studies
JPL Home Earth Solar System Stars & Galaxies Technology
JPL Solar System Dynamics
BODIES ORBITS EPHEMERIDES TOOLS PHYSICAL DATA DISCOVERY FAQ SITE MAP
IMPORTANT: The SSD Announcement email list is now available. Major changes are coming in the near future, including possible hostname and/or URL changes. To be notified of such changes, subscribe to this email list.

Please visit this page for more details.


JPL Small-Body Database Browser
Search: [ help ]  
379823 (2011 KD45)
Classification: Main-belt Asteroid          SPK-ID: 2379823
Ephemeris | Orbit Diagram | Orbital Elements | Mission Design | Physical Parameters | Discovery Circumstances | Close-Approach Data ]

[ show orbit diagram ]
Orbital Elements at Epoch 2459000.5 (2020-May-31.0) TDB
Reference: JPL 14 (heliocentric ecliptic J2000)
 Element Value Uncertainty (1-sigma)   Units 
e .08503573349275165 7.019e-08  
a 2.873481487977283 3.9217e-08 au
q 2.629132881969291 2.1591e-07 au
i 3.037025329826971 7.0208e-06 deg
node 121.9963525699246 0.00011627 deg
peri 29.98332579671226 0.00012153 deg
M 25.78358700306517 3.5129e-05 deg
tp 2458873.075814101501
(2020-Jan-24.57581410)
0.00017304 TDB
period 1779.143721081404
4.87
3.6422e-05
9.972e-08
d
yr
n .2023445299748937 4.1424e-09 deg/d
Q 3.117830093985275 4.2552e-08 au
  Orbit Determination Parameters
   # obs. used (total)      163  
   data-arc span      5523 days (15.12 yr)  
   first obs. used      2004-12-18  
   last obs. used      2020-02-01  
   planetary ephem.      DE431  
   SB-pert. ephem.      SB431-N16  
   condition code      0  
   norm. resid. RMS      .59239  
   source      ORB  
   producer      Otto Matic  
   solution date      2020-Feb-26 03:14:08  

Additional Information
 Earth MOID = 1.64033 au 
 Jupiter MOID = 1.87 au 
 T_jup = 3.290 
[ show covariance matrix ]

Ephemeris | Orbit Diagram | Orbital Elements | Mission Design | Physical Parameters | Discovery Circumstances | Close-Approach Data ]

Physical Parameter Table
Parameter Symbol Value Units Sigma Reference Notes
absolute magnitude H 16.8   n/a MPO418933  

379823 (2011 KD45)          Discovered 2006-Apr-24 by Spacewatch at Kitt Peak
Reference: Last Updated: 2013-11-20

[ show close-approach data ]
Ephemeris | Orbit Diagram | Orbital Elements | Mission Design | Physical Parameters | Discovery Circumstances | Close-Approach Data ]
ABOUT SSD CREDITS/AWARDS PRIVACY/COPYRIGHT GLOSSARY LINKS
FirstGov 2020-Apr-07 21:20 UT
(server date/time)  
NASA Home Page
Site Manager:   Ryan S. Park
Webmaster  Alan B. Chamberlin